Voltar ao catálogo

FENGYUN 1C DEB

AtivoPO
NORAD 38127·DEBRIS·🇨🇳 China

Lançado May 10, 1999 de Taiyuan Satellite Launch Center

Loading…

Próximas Passagens (próximas 24 horas)

TLE

ObsoletoSource: Space-Track

Época: Dec 17, 2023, 15:32 UTC

1 38127U 99025EPY 23351.64754230  .00004847  00000-0  15776-2 0  9992
2 38127  98.9981 291.1911 0059566  87.5934 273.2070 14.38208749505735

Acompanhe FENGYUN 1C DEB em tempo real com AllMySat

Download on the App Store